Orbital Elements at Epoch 2459000.5 (2020-May-31.0) TDB
Reference: JPL 24 (heliocentric ecliptic J2000)
Element | Value | Uncertainty (1-sigma) | Units |
e | .1292943544892333 | 3.7029e-08 | |
a | 3.173394696939851 | 1.8231e-08 | au |
q | 2.763092678059457 | 1.145e-07 | au |
i | 1.813406308782371 | 3.4626e-06 | deg |
node | 126.2784323945351 | 0.00014515 | deg |
peri | 132.2726206262957 | 0.00014595 | deg |
M | 119.3416391609179 | 1.5642e-05 | deg |
tp | 2458315.999039024069 (2018-Jul-16.49903902) | 8.9073e-05 | TDB |
period | 2064.83124987974 5.65 | 1.7793e-05 4.871e-08 | d yr |
n | .1743483880442856 | 1.5024e-09 | deg/d |
Q | 3.583696715820246 | 2.0588e-08 | au |
|
| | Orbit Determination Parameters
Additional Information
|